Location: Powder Track
(41.8531°N, 72.3584°W)
Time: 18:35:38
(UTC+00:00)

Vanguard 1 Rocket - Pass Details

Date: 06 August 2021
Orbit: 650 x 4226 km, 34.3° (Epoch: 20 September)

Event Time Altitude Azimuth Distance (km) Brightness Sun altitude
Rises 20:06:24 0° 278° (W) 5,725 12.2 42.0°
Reaches altitude 10° 20:12:40 10° 259° (W) 3,922 11.8 40.9°
Maximum altitude 20:17:33 15° 228° (SW) 2,909 11.1 40.0°
Drops below altitude 10° 20:21:18 10° 194° (SSW) 2,835 10.4 39.3°
Sets 20:24:40 0° 170° (S) 3,413 10.4 38.7°
